Location: Foulognes
(49.1413°N, 0.8183°W)
Time: 10:15:02
(UTC+00:00)

STARLINK-72 - Pass Details

Date: 21 October 2019
Orbit: 548 x 551 km, 53.0° (Epoch: 11 November)

Event Time Altitude Azimuth Distance (km) Brightness Sun altitude
Rises 18:59:19 0° 285° (WNW) 2,719 8.7 -19.8°
Reaches altitude 10° 19:01:36 10° 291° (WNW) 1,825 7.4 -20.2°
Maximum altitude 19:05:39 51° 8° (N) 693 4.0 -20.8°
Enters shadow 19:06:11 48° 36° (NE) 727 4.0 -20.9°
